Total_Precipitation_Accumulation
1.03 1.19 1.09 0.77 0.63 0.54 0.45 0.45 0.43 0.34 0.28 0.42 0.37 0.25 0.18 0.19 0.19 0.23 0.31 0.36 0.43 0.41 0.43 0.54 0.67 0.82 0.98 1.10 1.23 1.32 1.50 1.59 1.80 1.93 1.81 1.70 1.59 1.53 1.51 1.45 1.40 1.35 1.37 1.38
1.19 0.97 0.58 0.45 0.46 0.51 0.54 0.55 0.46 0.35 0.31 0.44 0.42 0.28 0.19 0.20 0.18 0.20 0.27 0.33 0.38 0.40 0.46 0.54 0.64 0.76 0.86 0.96 1.07 1.18 1.39 1.57 1.72 1.84 1.78 1.65 1.63 1.57 1.53 1.48 1.50 1.54 1.53 1.52
0.99 0.63 0.39 0.57 0.68 0.66 0.57 0.50 0.44 0.41 0.42 0.48 0.49 0.38 0.23 0.20 0.17 0.21 0.26 0.33 0.38 0.36 0.40 0.46 0.54 0.67 0.77 0.87 0.95 1.10 1.34 1.54 1.72 1.86 1.98 1.92 1.93 1.90 1.79 1.65 1.54 1.52 1.53 1.47
0.75 0.46 0.46 0.66 0.73 0.68 0.60 0.36 0.37 0.45 0.68 0.75 0.61 0.63 0.29 0.23 0.19 0.22 0.25 0.27 0.32 0.34 0.39 0.46 0.50 0.58 0.68 0.78 0.88 1.02 1.34 1.59 1.73 1.84 1.91 1.92 1.86 1.82 1.71 1.60 1.54 1.47 1.42 1.39
0.88 0.54 0.55 0.64 0.58 0.58 0.53 0.37 0.41 0.55 0.78 0.88 0.63 0.69 0.36 0.23 0.25 0.25 0.26 0.25 0.24 0.27 0.32 0.40 0.47 0.55 0.67 0.79 0.84 0.95 1.17 1.44 1.65 1.81 1.83 1.88 1.84 1.74 1.72 1.73 1.68 1.65 1.57 1.46
0.66 0.46 0.55 0.53 0.42 0.51 0.60 0.68 0.75 0.85 1.23 1.43 0.58 0.54 0.38 0.28 0.35 0.32 0.29 0.27 0.23 0.25 0.28 0.36 0.46 0.54 0.66 0.89 0.93 0.97 1.07 1.27 1.53 1.71 1.74 1.73 1.74 1.71 1.69 1.73 1.73 1.70 1.59 1.47
0.87 0.59 0.50 0.46 0.62 0.79 1.00 1.46 2.16 2.27 2.21 1.29 0.33 0.37 0.40 0.29 0.29 0.34 0.34 0.27 0.22 0.25 0.29 0.33 0.43 0.55 0.62 0.81 0.93 0.99 1.07 1.14 1.32 1.56 1.67 1.58 1.63 1.60 1.54 1.56 1.55 1.53 1.50 1.43
0.94 0.77 0.54 0.51 0.69 0.99 1.09 1.35 1.72 1.60 1.09 0.52 0.25 0.29 0.31 0.25 0.25 0.26 0.30 0.28 0.24 0.24 0.28 0.33 0.37 0.51 0.63 0.71 0.82 0.93 1.04 1.11 1.20 1.32 1.50 1.53 1.60 1.57 1.49 1.45 1.44 1.40 1.34 1.30
0.92 0.64 0.37 0.39 0.43 0.57 0.90 1.04 0.92 1.13 0.78 0.53 0.39 0.26 0.23 0.19 0.20 0.20 0.25 0.28 0.29 0.29 0.31 0.36 0.40 0.49 0.60 0.65 0.73 0.86 1.00 1.13 1.15 1.17 1.33 1.42 1.49 1.51 1.43 1.37 1.34 1.34 1.30 1.29
1.01 0.86 0.42 0.40 0.52 0.60 0.70 0.82 1.09 1.56 1.30 0.71 0.37 0.25 0.31 0.27 0.25 0.23 0.26 0.30 0.32 0.34 0.34 0.39 0.45 0.49 0.56 0.60 0.67 0.79 0.88 1.07 1.23 1.20 1.23 1.35 1.38 1.44 1.45 1.36 1.30 1.21 1.17 1.22
0.99 1.14 0.73 0.61 0.80 0.78 0.71 0.98 1.26 1.39 1.16 0.84 0.49 0.37 0.38 0.33 0.31 0.32 0.32 0.38 0.41 0.41 0.39 0.41 0.50 0.56 0.58 0.60 0.65 0.78 0.84 0.95 1.18 1.27 1.24 1.27 1.34 1.37 1.44 1.41 1.30 1.18 1.11 1.11
0.94 1.30 1.03 0.63 0.53 0.50 0.61 0.78 0.98 1.32 1.08 0.70 0.57 0.40 0.30 0.27 0.27 0.29 0.33 0.39 0.47 0.48 0.50 0.51 0.59 0.62 0.62 0.65 0.69 0.78 0.81 0.86 1.02 1.20 1.29 1.27 1.29 1.37 1.39 1.33 1.27 1.24 1.18 1.13
1.51 1.89 1.62 1.19 0.91 0.78 0.88 0.79 0.78 0.89 0.95 0.74 0.62 0.38 0.23 0.17 0.18 0.21 0.30 0.39 0.46 0.47 0.54 0.58 0.61 0.60 0.63 0.66 0.72 0.82 0.84 0.81 0.89 1.05 1.18 1.29 1.32 1.36 1.39 1.33 1.24 1.24 1.25 1.21
2.02 2.16 1.45 1.20 0.94 0.85 0.84 0.68 0.68 0.97 1.17 0.68 0.38 0.33 0.21 0.17 0.18 0.22 0.28 0.35 0.43 0.48 0.53 0.51 0.52 0.56 0.61 0.59 0.64 0.76 0.82 0.80 0.80 0.94 1.09 1.18 1.27 1.37 1.40 1.40 1.36 1.30 1.27 1.26
1.94 1.91 0.82 0.44 0.36 0.46 0.52 0.48 0.53 0.72 0.69 0.61 0.32 0.26 0.27 0.27 0.29 0.31 0.35 0.35 0.38 0.43 0.49 0.50 0.50 0.53 0.57 0.53 0.57 0.65 0.75 0.78 0.79 0.82 0.95 1.11 1.18 1.32 1.40 1.40 1.41 1.42 1.42 1.32
1.74 1.71 0.85 0.48 0.25 0.35 0.42 0.35 0.37 0.42 0.39 0.36 0.24 0.22 0.19 0.22 0.25 0.28 0.32 0.36 0.39 0.45 0.49 0.49 0.48 0.48 0.50 0.52 0.55 0.58 0.64 0.70 0.76 0.80 0.82 0.96 1.12 1.26 1.38 1.41 1.44 1.43 1.44 1.42
1.61 1.62 1.38 0.85 0.38 0.66 0.77 0.43 0.40 0.41 0.39 0.39 0.41 0.34 0.22 0.19 0.22 0.30 0.35 0.37 0.40 0.45 0.49 0.46 0.46 0.46 0.48 0.49 0.51 0.55 0.59 0.65 0.68 0.67 0.68 0.78 0.94 1.10 1.23 1.32 1.39 1.49 1.48 1.44
1.24 1.43 1.77 1.32 1.00 1.35 0.71 0.33 0.33 0.42 0.47 0.44 0.43 0.36 0.32 0.30 0.28 0.30 0.39 0.45 0.43 0.46 0.48 0.45 0.45 0.46 0.49 0.49 0.49 0.54 0.57 0.56 0.59 0.60 0.58 0.61 0.72 0.87 1.04 1.21 1.29 1.38 1.48 1.48
0.72 1.31 2.01 1.80 1.43 0.87 0.40 0.30 0.44 0.52 0.55 0.48 0.43 0.34 0.31 0.28 0.26 0.28 0.34 0.45 0.51 0.53 0.49 0.45 0.45 0.45 0.44 0.46 0.48 0.49 0.52 0.55 0.54 0.54 0.55 0.54 0.58 0.69 0.85 1.01 1.14 1.23 1.34 1.39
0.73 1.26 2.15 1.97 1.53 0.84 0.46 0.29 0.32 0.45 0.63 0.43 0.41 0.41 0.37 0.35 0.38 0.39 0.39 0.44 0.48 0.45 0.42 0.42 0.41 0.40 0.42 0.45 0.46 0.46 0.48 0.51 0.53 0.51 0.50 0.50 0.53 0.58 0.68 0.82 0.97 1.13 1.25 1.32
1.08 1.67 1.98 1.55 1.31 0.69 0.41 0.29 0.28 0.62 0.72 0.42 0.42 0.47 0.45 0.48 0.50 0.45 0.39 0.39 0.42 0.40 0.38 0.37 0.35 0.35 0.41 0.45 0.47 0.50 0.48 0.49 0.50 0.48 0.48 0.49 0.49 0.51 0.59 0.72 0.85 1.04 1.18 1.29
0.82 1.13 1.11 1.02 1.23 0.79 0.42 0.38 0.60 0.74 0.47 0.41 0.40 0.43 0.45 0.43 0.41 0.40 0.38 0.36 0.35 0.37 0.36 0.37 0.37 0.37 0.40 0.42 0.47 0.53 0.50 0.48 0.47 0.45 0.45 0.45 0.45 0.47 0.53 0.66 0.80 0.96 1.12 1.25
0.60 0.79 0.83 0.76 0.73 0.54 0.49 0.58 0.60 0.53 0.48 0.41 0.41 0.39 0.41 0.43 0.42 0.40 0.36 0.34 0.34 0.36 0.35 0.36 0.39 0.40 0.40 0.40 0.44 0.53 0.52 0.48 0.45 0.44 0.45 0.45 0.45 0.48 0.50 0.59 0.74 0.95 1.06 1.17
0.44 0.42 0.57 0.58 0.45 0.36 0.35 0.38 0.41 0.42 0.43 0.39 0.39 0.41 0.40 0.42 0.40 0.35 0.30 0.31 0.31 0.33 0.34 0.33 0.35 0.39 0.44 0.48 0.48 0.48 0.50 0.49 0.43 0.44 0.45 0.44 0.47 0.52 0.51 0.56 0.67 0.86 1.02 1.12
0.40 0.38 0.44 0.48 0.37 0.30 0.26 0.27 0.31 0.32 0.31 0.29 0.31 0.36 0.39 0.38 0.34 0.30 0.28 0.26 0.28 0.32 0.33 0.32 0.34 0.39 0.48 0.55 0.51 0.46 0.48 0.50 0.46 0.45 0.48 0.47 0.48 0.52 0.56 0.61 0.67 0.78 0.90 1.14
0.32 0.38 0.46 0.47 0.37 0.41 0.33 0.26 0.25 0.26 0.26 0.27 0.27 0.30 0.32 0.32 0.30 0.25 0.24 0.25 0.27 0.29 0.29 0.31 0.32 0.36 0.44 0.51 0.51 0.47 0.47 0.49 0.49 0.48 0.49 0.51 0.54 0.55 0.55 0.63 0.73 0.84 0.90 1.00